ARG1280 SAEZ-SCEL

Flight info

Callsign ARG1280
Flight time 1h 52m
Altitude 36000
Route URINO1A URINO UL405 TOSOR UT687 UMKAL UMKAL7B
Aircraft A320/M-SDE3FGHIRWY/LB1

Departure

Time 2026-05-06 12:34
Airport Ezeiza International Airport - Ministro Pistarini (SAEZ)

Arrival

Time 2026-05-06 14:27
Airport Comodoro Arturo Merino Benítez International Airport (SCEL)
Time Latitude Longitude Altitude Speed Heading
2026-05-06 11:32 -34.81597 -58.53998 59 ft 0 kts 317°
2026-05-06 11:59 -34.81604 -58.53990 60 ft 4 kts 317°
2026-05-06 11:59 -34.81624 -58.53968 65 ft 4 kts 317°
2026-05-06 12:00 -34.81644 -58.53946 59 ft 4 kts 317°
2026-05-06 12:00 -34.81664 -58.53923 60 ft 4 kts 317°
2026-05-06 12:00 -34.81684 -58.53902 59 ft 4 kts 318°
2026-05-06 12:00 -34.81698 -58.53885 61 ft 4 kts 302°
2026-05-06 12:01 -34.81702 -58.53859 62 ft 4 kts 246°
2026-05-06 12:01 -34.81689 -58.53832 59 ft 2 kts 234°
2026-05-06 12:01 -34.81685 -58.53826 59 ft 0 kts 234°
2026-05-06 12:05 -34.81688 -58.53830 59 ft 6 kts 234°
2026-05-06 12:05 -34.81734 -58.53916 62 ft 5 kts 240°
2026-05-06 12:06 -34.81773 -58.54002 69 ft 16 kts 242°
2026-05-06 12:06 -34.81792 -58.54139 63 ft 16 kts 281°
2026-05-06 12:06 -34.81768 -58.54296 70 ft 17 kts 280°
2026-05-06 12:06 -34.81753 -58.54433 70 ft 18 kts 276°
2026-05-06 12:07 -34.81758 -58.54589 69 ft 15 kts 257°
2026-05-06 12:07 -34.81768 -58.54638 61 ft 1 kts 256°
2026-05-06 12:07 -34.81769 -58.54644 62 ft 0 kts 256°
2026-05-06 12:07 -34.81776 -58.54678 66 ft 11 kts 258°
2026-05-06 12:08 -34.81770 -58.54822 68 ft 18 kts 281°
2026-05-06 12:08 -34.81732 -58.55020 65 ft 29 kts 283°
2026-05-06 12:08 -34.81696 -58.55233 66 ft 15 kts 281°
2026-05-06 12:08 -34.81734 -58.55340 69 ft 13 kts 212°
2026-05-06 12:09 -34.81842 -58.55321 65 ft 17 kts 145°
2026-05-06 12:09 -34.81932 -58.55183 69 ft 14 kts 106°
2026-05-06 12:09 -34.81938 -58.55154 65 ft 0 kts 102°
2026-05-06 12:10 -34.81939 -58.55148 66 ft 5 kts 102°
2026-05-06 12:11 -34.81995 -58.54824 62 ft 77 kts 102°
2026-05-06 12:11 -34.82118 -58.53950 70 ft 124 kts 92°
2026-05-06 12:11 -34.82139 -58.52841 65 ft 139 kts 84°
2026-05-06 12:11 -34.82053 -58.52328 66 ft 0 kts 315°
2026-05-06 12:12 -34.81597 -58.53998 66 ft 1 kts 317°
2026-05-06 12:24 -34.81612 -58.53981 59 ft 4 kts 317°
2026-05-06 12:24 -34.81632 -58.53959 63 ft 4 kts 317°
2026-05-06 12:25 -34.81652 -58.53937 65 ft 4 kts 317°
2026-05-06 12:25 -34.81672 -58.53914 62 ft 4 kts 318°
2026-05-06 12:25 -34.81691 -58.53895 63 ft 3 kts 311°
2026-05-06 12:25 -34.81702 -58.53876 62 ft 4 kts 277°
2026-05-06 12:26 -34.81697 -58.53847 64 ft 4 kts 238°
2026-05-06 12:26 -34.81687 -58.53828 59 ft 1 kts 234°
2026-05-06 12:26 -34.81685 -58.53826 59 ft 0 kts 234°
2026-05-06 12:29 -34.81690 -58.53835 60 ft 3 kts 234°
2026-05-06 12:30 -34.81707 -58.53864 62 ft 6 kts 237°
2026-05-06 12:30 -34.81735 -58.53919 64 ft 9 kts 240°
2026-05-06 12:30 -34.81771 -58.53994 66 ft 11 kts 240°
2026-05-06 12:30 -34.81794 -58.54089 61 ft 13 kts 265°
2026-05-06 12:31 -34.81782 -58.54206 69 ft 16 kts 280°
2026-05-06 12:31 -34.81763 -58.54351 67 ft 19 kts 277°
2026-05-06 12:31 -34.81750 -58.54525 64 ft 21 kts 266°
2026-05-06 12:31 -34.81774 -58.54714 70 ft 24 kts 270°
2026-05-06 12:32 -34.81755 -58.54895 68 ft 22 kts 282°
2026-05-06 12:32 -34.81720 -58.55091 63 ft 26 kts 282°
2026-05-06 12:32 -34.81695 -58.55266 64 ft 13 kts 265°
2026-05-06 12:32 -34.81757 -58.55348 71 ft 16 kts 198°
2026-05-06 12:33 -34.81868 -58.55297 68 ft 20 kts 141°
2026-05-06 12:33 -34.81934 -58.55177 69 ft 16 kts 104°
2026-05-06 12:33 -34.81936 -58.55166 69 ft 0 kts 104°
2026-05-06 12:33 -34.81950 -58.55099 68 ft 34 kts 103°
2026-05-06 12:34 -34.82050 -58.54522 69 ft 102 kts 101°
2026-05-06 12:34 -34.82226 -58.53454 64 ft 154 kts 102°
2026-05-06 12:34 -34.82486 -58.52079 406 ft 171 kts 102°
2026-05-06 12:34 -34.82796 -58.50666 1007 ft 179 kts 102°
2026-05-06 12:35 -34.83119 -58.49304 1593 ft 187 kts 101°
2026-05-06 12:35 -34.83615 -58.47792 2026 ft 206 kts 124°
2026-05-06 12:35 -34.84886 -58.46836 2263 ft 230 kts 173°
2026-05-06 12:35 -34.86461 -58.47211 2598 ft 242 kts 216°
2026-05-06 12:36 -34.87510 -58.48811 2970 ft 250 kts 256°
2026-05-06 12:36 -34.87822 -58.50908 3545 ft 255 kts 268°
2026-05-06 12:36 -34.87980 -58.53057 4423 ft 253 kts 270°
2026-05-06 12:36 -34.88060 -58.55194 5291 ft 252 kts 272°
2026-05-06 12:37 -34.87902 -58.57307 6112 ft 252 kts 283°
2026-05-06 12:37 -34.87602 -58.59375 6678 ft 245 kts 284°
2026-05-06 12:37 -34.87269 -58.61388 7125 ft 240 kts 285°
2026-05-06 12:37 -34.86899 -58.63349 7670 ft 235 kts 287°
2026-05-06 12:38 -34.86530 -58.65280 8215 ft 236 kts 285°
2026-05-06 12:38 -34.86174 -58.67302 8629 ft 256 kts 284°
2026-05-06 12:38 -34.85810 -58.69524 8919 ft 279 kts 284°
2026-05-06 12:38 -34.85424 -58.71885 9597 ft 284 kts 284°
2026-05-06 12:39 -34.85170 -58.73434 10230 ft 282 kts 283°
2026-05-06 12:39 -34.84659 -58.76565 10950 ft 297 kts 283°
2026-05-06 12:39 -34.84384 -58.78242 11102 ft 312 kts 283°
2026-05-06 12:39 -34.83945 -58.80916 11353 ft 331 kts 283°
2026-05-06 12:40 -34.83488 -58.83738 11630 ft 347 kts 282°
2026-05-06 12:40 -34.83020 -58.86681 11959 ft 361 kts 282°
2026-05-06 12:40 -34.82547 -58.89709 12507 ft 366 kts 282°
2026-05-06 12:40 -34.82055 -58.92752 13253 ft 365 kts 282°
2026-05-06 12:41 -34.81551 -58.95774 13979 ft 364 kts 282°
2026-05-06 12:41 -34.81034 -58.98778 14670 ft 363 kts 283°
2026-05-06 12:41 -34.80501 -59.01781 15381 ft 361 kts 283°
2026-05-06 12:41 -34.79957 -59.04757 16115 ft 360 kts 284°
2026-05-06 12:42 -34.79402 -59.07711 16863 ft 358 kts 284°
2026-05-06 12:42 -34.78834 -59.10651 17632 ft 356 kts 284°
2026-05-06 12:42 -34.78254 -59.13566 18387 ft 353 kts 284°
2026-05-06 12:42 -34.77670 -59.16449 19051 ft 352 kts 284°
2026-05-06 12:43 -34.77167 -59.19406 19413 ft 361 kts 281°
2026-05-06 12:43 -34.76786 -59.22455 19731 ft 369 kts 278°
2026-05-06 12:43 -34.76493 -59.25579 20098 ft 375 kts 278°
2026-05-06 12:43 -34.76121 -59.28731 20508 ft 378 kts 281°
2026-05-06 12:44 -34.75615 -59.31874 20952 ft 381 kts 283°
2026-05-06 12:44 -34.75040 -59.34902 21343 ft 383 kts 284°
2026-05-06 12:44 -34.74379 -59.38045 21771 ft 385 kts 285°
2026-05-06 12:44 -34.73792 -59.41232 22183 ft 387 kts 282°
2026-05-06 12:45 -34.73333 -59.44464 22618 ft 388 kts 280°
2026-05-06 12:45 -34.72951 -59.47718 23024 ft 390 kts 281°
2026-05-06 12:45 -34.71820 -59.54195 23722 ft 393 kts 284°
2026-05-06 12:46 -34.71205 -59.57436 24086 ft 393 kts 283°
2026-05-06 12:46 -34.70603 -59.60678 24465 ft 393 kts 283°
2026-05-06 12:46 -34.70013 -59.63915 24862 ft 392 kts 283°
2026-05-06 12:46 -34.69435 -59.67153 25275 ft 391 kts 283°
2026-05-06 12:47 -34.68855 -59.70374 25706 ft 390 kts 283°
2026-05-06 12:47 -34.68249 -59.73577 26165 ft 388 kts 284°
2026-05-06 12:47 -34.68126 -59.74205 26257 ft 363 kts 284°
2026-05-06 12:48 -34.66223 -59.83269 27617 ft 376 kts 284°
2026-05-06 12:48 -34.65524 -59.86307 28215 ft 372 kts 285°
2026-05-06 12:49 -34.64829 -59.89323 28716 ft 370 kts 284°
2026-05-06 12:49 -34.64174 -59.92344 29175 ft 369 kts 284°
2026-05-06 12:49 -34.63536 -59.95366 29651 ft 368 kts 284°
2026-05-06 12:49 -34.62975 -59.98361 29907 ft 372 kts 280°
2026-05-06 12:50 -34.62594 -60.01492 30029 ft 378 kts 278°
2026-05-06 12:50 -34.62305 -60.04663 30336 ft 378 kts 275°
2026-05-06 12:50 -34.62172 -60.07838 30764 ft 376 kts 272°
2026-05-06 12:50 -34.62202 -60.11010 31212 ft 374 kts 270°
2026-05-06 12:51 -34.62104 -60.14145 31636 ft 371 kts 278°
2026-05-06 12:51 -34.61686 -60.17240 31931 ft 373 kts 280°
2026-05-06 12:51 -34.61226 -60.20370 31881 ft 380 kts 280°
2026-05-06 12:52 -34.60310 -60.26741 31882 ft 384 kts 280°
2026-05-06 12:52 -34.59384 -60.33134 31875 ft 385 kts 280°
2026-05-06 12:53 -34.58458 -60.39531 31872 ft 386 kts 280°
2026-05-06 12:53 -34.57537 -60.45954 31872 ft 386 kts 280°
2026-05-06 12:54 -34.56338 -60.57033 31857 ft 384 kts 279°
2026-05-06 12:54 -34.54455 -60.66989 31851 ft 383 kts 281°
2026-05-06 12:55 -34.53527 -60.73365 31865 ft 384 kts 281°
2026-05-06 12:55 -34.52624 -60.79749 31892 ft 384 kts 281°
2026-05-06 12:56 -34.51726 -60.86121 31891 ft 383 kts 281°
2026-05-06 12:56 -34.50826 -60.92478 31861 ft 382 kts 281°
2026-05-06 12:57 -34.49932 -60.98788 31856 ft 383 kts 281°
2026-05-06 12:57 -34.49027 -61.05148 31878 ft 383 kts 281°
2026-05-06 12:58 -34.48145 -61.11505 31887 ft 383 kts 281°
2026-05-06 12:58 -34.47262 -61.17860 31866 ft 382 kts 281°
2026-05-06 12:59 -34.46374 -61.24212 31862 ft 382 kts 281°
2026-05-06 12:59 -34.45481 -61.30557 31859 ft 382 kts 281°
2026-05-06 13:00 -34.44591 -61.36905 31874 ft 382 kts 281°
2026-05-06 13:00 -34.43723 -61.43260 31870 ft 382 kts 281°
2026-05-06 13:01 -34.42852 -61.49599 31841 ft 382 kts 281°
2026-05-06 13:01 -34.41953 -61.55937 31836 ft 382 kts 281°
2026-05-06 13:02 -34.41040 -61.62282 31835 ft 383 kts 281°
2026-05-06 13:02 -34.40123 -61.68629 31836 ft 383 kts 281°
2026-05-06 13:03 -34.39199 -61.74977 31833 ft 383 kts 281°
2026-05-06 13:03 -34.38273 -61.81316 31832 ft 382 kts 281°
2026-05-06 13:04 -34.37351 -61.87593 31833 ft 382 kts 281°
2026-05-06 13:04 -34.36419 -61.93928 31852 ft 382 kts 282°
2026-05-06 13:05 -34.35523 -62.00265 31848 ft 382 kts 282°
2026-05-06 13:05 -34.34627 -62.06599 31844 ft 381 kts 282°
2026-05-06 13:06 -34.33712 -62.12916 31817 ft 382 kts 282°
2026-05-06 13:06 -34.32778 -62.19249 31817 ft 382 kts 282°
2026-05-06 13:07 -34.31849 -62.25578 31839 ft 383 kts 282°
2026-05-06 13:07 -34.30945 -62.31921 31839 ft 382 kts 282°
2026-05-06 13:08 -34.30036 -62.38261 31840 ft 382 kts 282°
2026-05-06 13:08 -34.29122 -62.44594 31838 ft 382 kts 282°
2026-05-06 13:09 -34.28209 -62.50884 31838 ft 382 kts 282°
2026-05-06 13:09 -34.27304 -62.57217 31860 ft 382 kts 282°
2026-05-06 13:10 -34.26417 -62.63538 31854 ft 381 kts 282°
2026-05-06 13:10 -34.25521 -62.69850 31819 ft 381 kts 282°
2026-05-06 13:11 -34.24601 -62.76164 31818 ft 382 kts 282°
2026-05-06 13:11 -34.23672 -62.82491 31820 ft 382 kts 282°
2026-05-06 13:12 -34.22764 -62.88818 31841 ft 382 kts 282°
2026-05-06 13:12 -34.21860 -62.95145 31842 ft 382 kts 282°
2026-05-06 13:13 -34.20951 -63.01465 31842 ft 382 kts 282°
2026-05-06 13:13 -34.20038 -63.07787 31841 ft 382 kts 282°
2026-05-06 13:14 -34.19123 -63.14099 31857 ft 382 kts 282°
2026-05-06 13:14 -34.18220 -63.20423 31852 ft 382 kts 282°
2026-05-06 13:15 -34.17315 -63.26736 31848 ft 382 kts 283°
2026-05-06 13:15 -34.16402 -63.33051 31817 ft 382 kts 283°
2026-05-06 13:16 -34.15478 -63.39375 31820 ft 382 kts 283°
2026-05-06 13:16 -34.14553 -63.45690 31843 ft 383 kts 283°
2026-05-06 13:17 -34.13641 -63.52027 31839 ft 382 kts 283°
2026-05-06 13:17 -34.12727 -63.58346 31838 ft 382 kts 283°
2026-05-06 13:18 -34.11807 -63.64668 31836 ft 382 kts 283°
2026-05-06 13:18 -34.10884 -63.70978 31835 ft 382 kts 283°
2026-05-06 13:19 -34.09964 -63.77295 31855 ft 382 kts 283°
2026-05-06 13:19 -34.09061 -63.83610 31845 ft 382 kts 283°
2026-05-06 13:20 -34.08156 -63.89916 31835 ft 382 kts 283°
2026-05-06 13:20 -34.07242 -63.96183 31801 ft 382 kts 283°
2026-05-06 13:21 -34.06311 -64.02494 31804 ft 382 kts 283°
2026-05-06 13:21 -34.05381 -64.08808 31832 ft 382 kts 283°
2026-05-06 13:22 -34.04456 -64.15119 31832 ft 382 kts 283°
2026-05-06 13:22 -34.02571 -64.20983 31808 ft 379 kts 307°
2026-05-06 13:22 -34.00639 -64.23151 31803 ft 385 kts 322°
2026-05-06 13:23 -33.98170 -64.24511 31798 ft 399 kts 338°
2026-05-06 13:23 -33.95363 -64.24863 31782 ft 415 kts 350°
2026-05-06 13:23 -33.92652 -64.25517 31928 ft 391 kts 327°
2026-05-06 13:23 -33.90882 -64.27744 31881 ft 369 kts 291°
2026-05-06 13:24 -33.90402 -64.30797 32003 ft 377 kts 281°
2026-05-06 13:24 -33.90053 -64.33962 31751 ft 384 kts 281°
2026-05-06 13:24 -33.89814 -64.37187 31791 ft 391 kts 273°
2026-05-06 13:25 -33.90389 -64.43760 31821 ft 396 kts 269°
2026-05-06 13:25 -33.90975 -64.50324 31820 ft 391 kts 276°
2026-05-06 13:26 -33.90386 -64.55649 31826 ft 385 kts 284°
2026-05-06 13:26 -33.89344 -64.61972 31825 ft 385 kts 284°
2026-05-06 13:27 -33.88292 -64.68283 31815 ft 385 kts 284°
2026-05-06 13:27 -33.87243 -64.74595 31813 ft 385 kts 284°
2026-05-06 13:28 -33.86203 -64.80908 31815 ft 385 kts 284°
2026-05-06 13:28 -33.85159 -64.87219 31813 ft 385 kts 284°
2026-05-06 13:29 -33.84112 -64.93532 31812 ft 385 kts 284°
2026-05-06 13:29 -33.83062 -64.99840 31840 ft 384 kts 285°
2026-05-06 13:30 -33.82006 -65.06136 31836 ft 384 kts 285°
2026-05-06 13:30 -33.80939 -65.12420 31830 ft 383 kts 285°
2026-05-06 13:31 -33.79881 -65.18697 31825 ft 383 kts 285°
2026-05-06 13:31 -33.78821 -65.24973 31823 ft 383 kts 285°
2026-05-06 13:32 -33.77751 -65.31251 31839 ft 383 kts 285°
2026-05-06 13:32 -33.76681 -65.37521 31836 ft 383 kts 285°
2026-05-06 13:33 -33.75615 -65.43790 31832 ft 383 kts 285°
2026-05-06 13:33 -33.74542 -65.50051 31835 ft 382 kts 285°
2026-05-06 13:34 -33.73463 -65.56305 31826 ft 383 kts 285°
2026-05-06 13:34 -33.72392 -65.62526 31835 ft 383 kts 285°
2026-05-06 13:35 -33.71311 -65.68778 31832 ft 382 kts 285°
2026-05-06 13:35 -33.70220 -65.75023 31830 ft 382 kts 285°
2026-05-06 13:36 -33.69134 -65.81259 31828 ft 381 kts 285°
2026-05-06 13:36 -33.68042 -65.87493 31827 ft 382 kts 285°
2026-05-06 13:37 -33.66947 -65.93731 31884 ft 382 kts 286°
2026-05-06 13:37 -33.65850 -65.99962 31866 ft 381 kts 286°
2026-05-06 13:38 -33.64758 -66.06186 31862 ft 381 kts 286°
2026-05-06 13:38 -33.63666 -66.12394 31855 ft 380 kts 286°
2026-05-06 13:39 -33.62570 -66.18593 31847 ft 380 kts 286°
2026-05-06 13:39 -33.61467 -66.24782 31801 ft 379 kts 286°
2026-05-06 13:40 -33.60360 -66.30962 31843 ft 379 kts 286°
2026-05-06 13:40 -33.59247 -66.37151 31848 ft 383 kts 286°
2026-05-06 13:41 -33.58107 -66.43466 31853 ft 390 kts 286°
2026-05-06 13:41 -33.56975 -66.49767 31830 ft 383 kts 286°
2026-05-06 13:42 -33.55845 -66.56040 31832 ft 388 kts 286°
2026-05-06 13:42 -33.54689 -66.62386 31823 ft 391 kts 286°
2026-05-06 13:43 -33.53534 -66.68760 31832 ft 391 kts 286°
2026-05-06 13:43 -33.52376 -66.75124 31830 ft 391 kts 286°
2026-05-06 13:44 -33.51211 -66.81495 31830 ft 391 kts 286°
2026-05-06 13:44 -33.50050 -66.87842 31805 ft 391 kts 286°
2026-05-06 13:45 -33.48877 -66.94199 31851 ft 390 kts 286°
2026-05-06 13:45 -33.47120 -67.03702 31835 ft 389 kts 286°
2026-05-06 13:46 -33.45940 -67.10016 31836 ft 388 kts 287°
2026-05-06 13:46 -33.44765 -67.16327 31838 ft 388 kts 287°
2026-05-06 13:47 -33.43593 -67.22641 31874 ft 388 kts 287°
2026-05-06 13:47 -33.41527 -67.33759 31051 ft 351 kts 298°
2026-05-06 13:48 -33.39947 -67.35845 25238 ft 433 kts 320°
2026-05-06 13:48 -33.37798 -67.38385 24760 ft 425 kts 308°
2026-05-06 13:48 -33.36147 -67.41275 25639 ft 400 kts 299°
2026-05-06 13:48 -33.35186 -67.44332 26582 ft 394 kts 285°
2026-05-06 13:49 -33.35122 -67.47675 26602 ft 412 kts 271°
2026-05-06 13:49 -33.35398 -67.51104 26464 ft 418 kts 271°
2026-05-06 13:49 -33.35675 -67.54600 25873 ft 425 kts 271°
2026-05-06 13:49 -33.35948 -67.58096 25104 ft 430 kts 270°
2026-05-06 13:50 -33.36064 -67.61661 24722 ft 427 kts 278°
2026-05-06 13:50 -33.35570 -67.65141 24679 ft 424 kts 286°
2026-05-06 13:50 -33.34916 -67.68582 24650 ft 424 kts 286°
2026-05-06 13:50 -33.34257 -67.72023 24626 ft 424 kts 286°
2026-05-06 13:51 -33.33596 -67.75458 24598 ft 424 kts 286°
2026-05-06 13:51 -33.32933 -67.78899 24574 ft 424 kts 286°
2026-05-06 13:51 -33.32272 -67.82332 24620 ft 423 kts 286°
2026-05-06 13:51 -33.31615 -67.85737 24778 ft 420 kts 286°
2026-05-06 13:52 -33.30958 -67.89138 24830 ft 419 kts 286°
2026-05-06 13:52 -33.30302 -67.92535 24833 ft 420 kts 286°
2026-05-06 13:52 -33.29645 -67.95941 24833 ft 421 kts 286°
2026-05-06 13:52 -33.28988 -67.99345 24833 ft 421 kts 286°
2026-05-06 13:53 -33.28329 -68.02755 24838 ft 421 kts 286°
2026-05-06 13:53 -33.27670 -68.06165 24833 ft 421 kts 286°
2026-05-06 13:53 -33.27011 -68.09579 24832 ft 421 kts 286°
2026-05-06 13:53 -33.26350 -68.12984 24834 ft 421 kts 286°
2026-05-06 13:54 -33.25684 -68.16396 24808 ft 421 kts 286°
2026-05-06 13:54 -33.25016 -68.19803 24884 ft 421 kts 286°
2026-05-06 13:54 -33.24346 -68.23208 24833 ft 421 kts 286°
2026-05-06 13:54 -33.23677 -68.26614 24839 ft 420 kts 286°
2026-05-06 13:55 -33.23011 -68.30006 24830 ft 420 kts 286°
2026-05-06 13:55 -33.22344 -68.33397 24835 ft 419 kts 286°
2026-05-06 13:55 -33.21676 -68.36785 24839 ft 419 kts 286°
2026-05-06 13:55 -33.21018 -68.40123 24835 ft 419 kts 286°
2026-05-06 13:56 -33.20350 -68.43512 24839 ft 419 kts 286°
2026-05-06 13:56 -33.19683 -68.46895 24843 ft 419 kts 286°
2026-05-06 13:56 -33.19016 -68.50273 24844 ft 418 kts 286°
2026-05-06 13:56 -33.18346 -68.53652 24905 ft 418 kts 285°
2026-05-06 13:57 -33.17677 -68.57019 24839 ft 416 kts 285°
2026-05-06 13:57 -33.17010 -68.60376 24852 ft 415 kts 285°
2026-05-06 13:57 -33.16347 -68.63710 24853 ft 414 kts 285°
2026-05-06 13:57 -33.15681 -68.67057 24851 ft 413 kts 285°
2026-05-06 13:58 -33.15014 -68.70386 24851 ft 412 kts 285°
2026-05-06 13:58 -33.14358 -68.73651 24854 ft 412 kts 285°
2026-05-06 13:58 -33.13693 -68.76968 24854 ft 411 kts 285°
2026-05-06 13:58 -33.13027 -68.80288 24854 ft 411 kts 285°
2026-05-06 13:59 -33.12361 -68.83601 24851 ft 411 kts 285°
2026-05-06 13:59 -33.11693 -68.86918 24919 ft 411 kts 285°
2026-05-06 13:59 -33.11027 -68.90213 24849 ft 408 kts 285°
2026-05-06 13:59 -33.10362 -68.93504 24854 ft 407 kts 285°
2026-05-06 14:00 -33.09700 -68.96779 24856 ft 406 kts 285°
2026-05-06 14:00 -33.09042 -69.00045 24865 ft 405 kts 285°
2026-05-06 14:00 -33.08381 -69.03305 24865 ft 404 kts 285°
2026-05-06 14:00 -33.07720 -69.06556 24865 ft 404 kts 285°
2026-05-06 14:01 -33.07058 -69.09809 24861 ft 404 kts 285°
2026-05-06 14:01 -33.06397 -69.13060 24883 ft 403 kts 285°
2026-05-06 14:01 -33.05736 -69.16309 24881 ft 403 kts 285°
2026-05-06 14:01 -33.05076 -69.19554 25002 ft 402 kts 285°
2026-05-06 14:02 -33.04419 -69.22774 24893 ft 398 kts 284°
2026-05-06 14:02 -33.03764 -69.25971 24890 ft 396 kts 285°
2026-05-06 14:02 -33.03106 -69.29159 24926 ft 395 kts 285°
2026-05-06 14:02 -33.02453 -69.32328 24928 ft 393 kts 285°
2026-05-06 14:03 -33.01801 -69.35484 24925 ft 392 kts 285°
2026-05-06 14:03 -33.01151 -69.38627 24921 ft 390 kts 285°
2026-05-06 14:03 -33.00502 -69.41761 24972 ft 389 kts 284°
2026-05-06 14:03 -32.99859 -69.44878 24976 ft 387 kts 285°
2026-05-06 14:04 -32.99211 -69.48012 24949 ft 392 kts 285°
2026-05-06 14:04 -32.98557 -69.51169 24973 ft 392 kts 285°
2026-05-06 14:04 -32.97906 -69.54309 25063 ft 390 kts 284°
2026-05-06 14:04 -32.97252 -69.57459 25025 ft 393 kts 284°
2026-05-06 14:05 -32.96594 -69.60615 25023 ft 390 kts 284°
2026-05-06 14:05 -32.95945 -69.63727 25027 ft 388 kts 284°
2026-05-06 14:05 -32.95290 -69.66865 25066 ft 390 kts 284°
2026-05-06 14:05 -32.94637 -69.69996 25064 ft 390 kts 284°
2026-05-06 14:06 -32.93981 -69.73138 25065 ft 391 kts 284°
2026-05-06 14:06 -32.93325 -69.76286 25068 ft 393 kts 284°
2026-05-06 14:06 -32.92677 -69.79386 25063 ft 386 kts 284°
2026-05-06 14:06 -32.92044 -69.82414 25104 ft 370 kts 284°
2026-05-06 14:07 -32.91426 -69.85357 25101 ft 365 kts 284°
2026-05-06 14:07 -32.90808 -69.88282 25102 ft 364 kts 285°
2026-05-06 14:07 -32.90189 -69.91206 25095 ft 364 kts 285°
2026-05-06 14:07 -32.89572 -69.94125 25123 ft 365 kts 285°
2026-05-06 14:08 -32.88964 -69.97059 25123 ft 365 kts 283°
2026-05-06 14:08 -32.88572 -70.00045 25130 ft 368 kts 279°
2026-05-06 14:08 -32.88471 -70.03102 25139 ft 371 kts 273°
2026-05-06 14:08 -32.88601 -70.06174 25136 ft 373 kts 271°
2026-05-06 14:09 -32.88742 -70.09261 25158 ft 373 kts 271°
2026-05-06 14:09 -32.88882 -70.12334 25150 ft 372 kts 271°
2026-05-06 14:09 -32.89020 -70.15399 25153 ft 371 kts 271°
2026-05-06 14:09 -32.89157 -70.18462 25152 ft 371 kts 271°
2026-05-06 14:10 -32.89292 -70.21498 25130 ft 372 kts 271°
2026-05-06 14:10 -32.89429 -70.24624 24959 ft 377 kts 271°
2026-05-06 14:10 -32.89565 -70.27744 24724 ft 379 kts 271°
2026-05-06 14:10 -32.89700 -70.30879 24485 ft 380 kts 271°
2026-05-06 14:11 -32.89832 -70.33988 24262 ft 381 kts 270°
2026-05-06 14:11 -32.89966 -70.37141 24134 ft 382 kts 270°
2026-05-06 14:11 -32.90100 -70.40308 24162 ft 384 kts 270°
2026-05-06 14:11 -32.90234 -70.43473 24133 ft 382 kts 270°
2026-05-06 14:12 -32.90368 -70.46623 24153 ft 379 kts 270°
2026-05-06 14:12 -32.90499 -70.49748 24013 ft 379 kts 270°
2026-05-06 14:12 -32.90628 -70.52883 23782 ft 379 kts 270°
2026-05-06 14:12 -32.90760 -70.56021 23497 ft 382 kts 270°
2026-05-06 14:13 -32.90903 -70.59189 23227 ft 385 kts 270°
2026-05-06 14:13 -32.91050 -70.62334 22944 ft 387 kts 270°
2026-05-06 14:13 -32.91200 -70.65578 22669 ft 385 kts 270°
2026-05-06 14:13 -32.91345 -70.68638 22406 ft 367 kts 270°
2026-05-06 14:14 -32.91611 -70.71594 22142 ft 354 kts 264°
2026-05-06 14:14 -32.92241 -70.74427 21876 ft 346 kts 257°
2026-05-06 14:14 -32.93172 -70.77004 21626 ft 342 kts 250°
2026-05-06 14:14 -32.94404 -70.79406 21360 ft 339 kts 243°
2026-05-06 14:15 -32.95912 -70.81561 21104 ft 338 kts 236°
2026-05-06 14:15 -32.97660 -70.83423 20874 ft 338 kts 228°
2026-05-06 14:15 -32.99630 -70.84969 20623 ft 340 kts 220°
2026-05-06 14:15 -33.01770 -70.86164 20373 ft 338 kts 214°
2026-05-06 14:16 -33.03224 -70.86896 20202 ft 334 kts 214°
2026-05-06 14:16 -33.05330 -70.87968 19957 ft 332 kts 215°
2026-05-06 14:16 -33.07440 -70.89055 19736 ft 331 kts 214°
2026-05-06 14:16 -33.09555 -70.90149 19490 ft 331 kts 214°
2026-05-06 14:17 -33.11662 -70.91240 19245 ft 330 kts 214°
2026-05-06 14:17 -33.13765 -70.92327 18854 ft 329 kts 214°
2026-05-06 14:17 -33.15872 -70.93419 18460 ft 329 kts 214°
2026-05-06 14:17 -33.17976 -70.94504 17997 ft 329 kts 213°
2026-05-06 14:18 -33.20134 -70.95452 17412 ft 336 kts 203°
2026-05-06 14:18 -33.22477 -70.95858 16971 ft 345 kts 190°
2026-05-06 14:18 -33.24897 -70.95677 16621 ft 350 kts 180°
2026-05-06 14:18 -33.27308 -70.95355 16300 ft 347 kts 180°
2026-05-06 14:19 -33.29700 -70.95039 16029 ft 344 kts 181°
2026-05-06 14:19 -33.32068 -70.94729 15580 ft 340 kts 180°
2026-05-06 14:19 -33.34414 -70.94422 14945 ft 337 kts 180°
2026-05-06 14:19 -33.36731 -70.94121 14375 ft 337 kts 180°
2026-05-06 14:20 -33.39118 -70.93819 13882 ft 346 kts 179°
2026-05-06 14:20 -33.41459 -70.93512 13455 ft 333 kts 180°
2026-05-06 14:20 -33.43736 -70.93206 12833 ft 327 kts 179°
2026-05-06 14:20 -33.45984 -70.92906 12210 ft 324 kts 179°
2026-05-06 14:21 -33.48218 -70.92615 11583 ft 322 kts 179°
2026-05-06 14:21 -33.50446 -70.92330 10715 ft 327 kts 179°
2026-05-06 14:21 -33.52725 -70.92044 9525 ft 340 kts 178°
2026-05-06 14:21 -33.55119 -70.91699 8488 ft 345 kts 171°
2026-05-06 14:22 -33.57227 -70.90558 8282 ft 326 kts 142°
2026-05-06 14:22 -33.58630 -70.88604 8151 ft 298 kts 114°
2026-05-06 14:22 -33.59205 -70.86362 7904 ft 271 kts 90°
2026-05-06 14:22 -33.59197 -70.84088 6915 ft 278 kts 80°
2026-05-06 14:23 -33.58705 -70.81860 5849 ft 278 kts 54°
2026-05-06 14:23 -33.57421 -70.80183 4720 ft 276 kts 29°
2026-05-06 14:23 -33.55621 -70.79414 3554 ft 279 kts
2026-05-06 14:23 -33.53742 -70.79713 2584 ft 269 kts 338°
2026-05-06 14:24 -33.52107 -70.80566 2097 ft 238 kts 348°
2026-05-06 14:24 -33.50591 -70.80620 2334 ft 208 kts
2026-05-06 14:24 -33.49204 -70.80350 2593 ft 197 kts
2026-05-06 14:24 -33.47886 -70.80009 2391 ft 192 kts
2026-05-06 14:25 -33.46598 -70.79755 2133 ft 179 kts
2026-05-06 14:25 -33.45420 -70.79648 2014 ft 161 kts
2026-05-06 14:25 -33.44350 -70.79605 1941 ft 149 kts 360°
2026-05-06 14:25 -33.43338 -70.79596 1856 ft 143 kts 358°
2026-05-06 14:26 -33.42359 -70.79655 1816 ft 140 kts 353°
2026-05-06 14:26 -33.41392 -70.79833 1862 ft 146 kts 350°
2026-05-06 14:26 -33.40429 -70.80044 1776 ft 133 kts 347°
2026-05-06 14:26 -33.39546 -70.80270 1562 ft 122 kts 355°
2026-05-06 14:27 -33.39014 -70.80283 1560 ft 11 kts 359°
2026-05-06 14:27 -33.38837 -70.80286 1560 ft 47 kts 359°
2026-05-06 14:27 -33.38506 -70.80300 1558 ft 47 kts 358°
2026-05-06 14:27 -33.38177 -70.80319 1556 ft 49 kts 357°
2026-05-06 14:28 -33.37819 -70.80339 1556 ft 70 kts 358°
2026-05-06 14:28 -33.37027 -70.80384 1563 ft 153 kts 358°
2026-05-06 14:28 -33.35886 -70.80371 2117 ft 169 kts
2026-05-06 14:28 -33.34609 -70.80476 2259 ft 203 kts 344°
2026-05-06 14:29 -33.33290 -70.81234 2316 ft 223 kts 324°
2026-05-06 14:29 -33.32220 -70.82607 3048 ft 229 kts 303°
2026-05-06 14:29 -33.31576 -70.84341 3936 ft 235 kts 288°
2026-05-06 14:29 -33.31433 -70.86380 4564 ft 261 kts 264°
2026-05-06 14:30 -33.32170 -70.88424 5424 ft 278 kts 237°
2026-05-06 14:30 -33.33677 -70.89953 6186 ft 293 kts 214°
2026-05-06 14:30 -33.35648 -70.90629 6516 ft 302 kts 187°
2026-05-06 14:30 -33.37734 -70.90227 6863 ft 309 kts 160°
2026-05-06 14:31 -33.39518 -70.88806 7203 ft 312 kts 132°
2026-05-06 14:31 -33.40652 -70.86960 7243 ft 311 kts 118°
2026-05-06 14:31 -33.41728 -70.84748 7192 ft 305 kts 116°
2026-05-06 14:31 -33.42771 -70.82548 7143 ft 304 kts 116°
2026-05-06 14:32 -33.43810 -70.80349 7095 ft 303 kts 117°
2026-05-06 14:32 -33.45160 -70.78413 7045 ft 306 kts 142°
2026-05-06 14:32 -33.47060 -70.77320 6997 ft 304 kts 170°
2026-05-06 14:32 -33.49160 -70.77050 6961 ft 304 kts 180°
2026-05-06 14:33 -33.51259 -70.76696 6908 ft 307 kts 165°
2026-05-06 14:33 -33.53269 -70.75830 6863 ft 308 kts 156°
2026-05-06 14:33 -33.55218 -70.74756 6722 ft 309 kts 155°
2026-05-06 14:33 -33.57123 -70.73661 6357 ft 306 kts 154°
2026-05-06 14:34 -33.59029 -70.72555 5997 ft 304 kts 154°
2026-05-06 14:34 -33.60916 -70.71438 5619 ft 301 kts 153°
2026-05-06 14:34 -33.62769 -70.70305 5248 ft 298 kts 152°
2026-05-06 14:34 -33.64590 -70.69169 5038 ft 293 kts 154°
2026-05-06 14:35 -33.66543 -70.68561 5044 ft 291 kts 181°
2026-05-06 14:35 -33.68516 -70.68960 5051 ft 288 kts 200°
2026-05-06 14:35 -33.70415 -70.69695 5061 ft 287 kts 201°
2026-05-06 14:35 -33.72305 -70.70477 5050 ft 287 kts 202°
2026-05-06 14:36 -33.74186 -70.71267 5046 ft 287 kts 202°
2026-05-06 14:36 -33.76065 -70.72059 5047 ft 286 kts 202°
2026-05-06 14:36 -33.77946 -70.72854 5050 ft 287 kts 202°
2026-05-06 14:36 -33.79826 -70.73650 5048 ft 286 kts 202°
2026-05-06 14:37 -33.81700 -70.74446 5042 ft 286 kts 202°
2026-05-06 14:37 -33.83531 -70.75360 5037 ft 282 kts 217°
2026-05-06 14:37 -33.84875 -70.76990 5044 ft 272 kts 245°
2026-05-06 14:37 -33.85407 -70.79097 5043 ft 260 kts 273°
2026-05-06 14:38 -33.85032 -70.81163 5046 ft 251 kts 301°
2026-05-06 14:38 -33.83877 -70.82673 5044 ft 246 kts 330°
2026-05-06 14:38 -33.82271 -70.83334 5048 ft 246 kts 349°
2026-05-06 14:38 -33.80577 -70.83628 5049 ft 246 kts 352°
2026-05-06 14:39 -33.78876 -70.83868 5051 ft 247 kts 353°
2026-05-06 14:39 -33.77161 -70.84029 5045 ft 248 kts
2026-05-06 14:39 -33.75443 -70.83813 5051 ft 250 kts
2026-05-06 14:39 -33.73719 -70.83498 5048 ft 251 kts
2026-05-06 14:40 -33.71996 -70.83175 5026 ft 252 kts
2026-05-06 14:40 -33.70259 -70.82847 5039 ft 252 kts
2026-05-06 14:40 -33.68535 -70.82517 5034 ft 250 kts
2026-05-06 14:40 -33.66818 -70.82183 5040 ft 250 kts
2026-05-06 14:41 -33.65109 -70.81853 5030 ft 249 kts
2026-05-06 14:41 -33.63391 -70.81536 4755 ft 246 kts
2026-05-06 14:41 -33.61692 -70.81217 4876 ft 249 kts
2026-05-06 14:41 -33.59993 -70.80897 4617 ft 246 kts
2026-05-06 14:42 -33.58298 -70.80581 4117 ft 247 kts
2026-05-06 14:42 -33.56596 -70.80273 3651 ft 248 kts
2026-05-06 14:42 -33.54895 -70.79981 3453 ft 249 kts
2026-05-06 14:42 -33.53168 -70.79775 3199 ft 248 kts 359°
2026-05-06 14:43 -33.51440 -70.79808 2993 ft 249 kts 353°
2026-05-06 14:43 -33.49714 -70.80053 2811 ft 251 kts 352°
2026-05-06 14:43 -33.47971 -70.80214 2705 ft 253 kts 355°
2026-05-06 14:43 -33.46213 -70.80381 2774 ft 254 kts 351°
2026-05-06 14:44 -33.44475 -70.80726 2798 ft 246 kts 350°
2026-05-06 14:44 -33.42817 -70.80906 2728 ft 237 kts 358°
2026-05-06 14:44 -33.41184 -70.80738 2528 ft 230 kts
2026-05-06 14:45 -33.38405 -70.80156 1590 ft 175 kts 356°
2026-05-06 14:45 -33.37378 -70.80158 1555 ft 93 kts 349°
2026-05-06 14:45 -33.37185 -70.80187 1555 ft 3 kts
2026-05-06 14:45 -33.37189 -70.80187 1555 ft 8 kts 359°
2026-05-06 14:46 -33.37269 -70.80185 1556 ft 6 kts 359°